Flag Weather past 2 weeks in Canvey Island, England, United Kingdom

Now
41 °F

Clear.


Feels Like: 37 °F
Forecast: 36 / 45 °F
Wind: 6 mph from Northwest

Location: Southend Airport-On-Sea

Current Time: Nov 24, 2014 at 1:31:19 AM

Latest Report: Nov 23, 2014 at 11:50 PM


Visibility: 10 mi

Pressure: 30.15 "Hg

Humidity: 93%

Dew point: 39 °F

Location of Canvey IslandLocation

Historic Weather in Canvey Island — Graph

°F

Canvey Island temperature yesterday

Maximum temperature yesterday: 55 °F (at 12:50 AM)
Minimum temperature yesterday: 41 °F (at 11:20 PM)
Average temperature yesterday: 47 °F

Past Weeks' High & Low Weather Summary

 TemperatureHumidityPressure
High57 °F (Nov 11, 1:20 PM)100% (Nov 15, 7:50 AM)30.27 "Hg (Nov 15, 7:50 AM)
Low39 °F (Nov 14, 11:20 PM)63% (Nov 9, 2:20 PM)29.36 "Hg (Nov 12, 12:20 AM)
Average50 °F86%29.74 "Hg
* Reported Nov 8 11:20 PM — Nov 23 11:50 PM, Canvey Island, Weather by CustomWeather, © 2014

Note: Actual official high and low records may vary slightly from our data, if they occured in-between our weather recording intervals... More about our weather records

Advertising

Canvey Island weather history for previous 24 hours

 ConditionsComfort  
Time TempWeatherWind HumidityBarometerVisibility
11:50 PM
Nov 23
41 °FClear.6 mph93%30.15 "Hg10 mi
11:20 PM41 °FClear.6 mph93%30.15 "Hg10 mi
10:50 PM43 °FPassing clouds.6 mph93%30.15 "HgN/A
10:20 PM45 °FPassing clouds.7 mph87%30.12 "HgN/A
9:50 PM45 °FPassing clouds.5 mph93%30.12 "HgN/A
9:20 PM45 °FPassing clouds.6 mph93%30.12 "HgN/A
8:20 PM43 °FPassing clouds.5 mph93%30.09 "HgN/A
7:50 PM45 °FLight rain. Passing clouds.3 mph93%30.09 "Hg5 mi
7:20 PM45 °FLight rain. Passing clouds.5 mph87%30.07 "Hg5 mi
6:50 PM45 °FRain. Passing clouds.5 mph93%30.07 "Hg5 mi
6:20 PM45 °FRain. Passing clouds.6 mph93%30.07 "Hg5 mi
5:50 PM45 °FRain. Passing clouds.7 mph87%30.07 "Hg5 mi
5:20 PM43 °FRain. Partly cloudy.6 mph93%30.04 "Hg5 mi
4:50 PM45 °FRain. Overcast.9 mph87%30.04 "Hg5 mi
4:20 PM45 °FRain. Overcast.9 mph93%30.04 "Hg5 mi
3:50 PM45 °FLight rain. More clouds than sun.10 mph87%30.01 "Hg5 mi
3:20 PM45 °FLight rain. Mostly cloudy.10 mph87%30.01 "Hg4 mi
2:50 PM45 °FLight rain. Mostly cloudy.10 mph93%30.01 "Hg4 mi
2:20 PM45 °FLight rain. Mostly cloudy.9 mph93%30.01 "Hg4 mi
1:50 PM46 °FLight rain. Mostly cloudy.10 mph93%29.98 "Hg4 mi
1:20 PM45 °FRain. Mostly cloudy.10 mph93%29.98 "Hg4 mi
12:50 PM46 °FRain. Mostly cloudy.10 mph87%29.98 "Hg4 mi
12:20 PM46 °FRain. Mostly cloudy.9 mph93%29.98 "Hg4 mi
11:50 AM46 °FDrizzle. Mostly cloudy.9 mph93%30.01 "Hg3 mi
11:20 AM48 °FDrizzle. More clouds than sun.10 mph94%29.98 "Hg3 mi
10:50 AM48 °FDrizzle. Partly sunny.10 mph94%29.98 "Hg4 mi
10:20 AM48 °FDrizzle. Partly sunny.14 mph87%29.98 "Hg5 mi
9:50 AM50 °FDrizzle. Partly sunny.12 mph88%29.98 "Hg4 mi
9:20 AM50 °FDrizzle. Low clouds.12 mph94%29.98 "Hg4 mi
8:50 AM50 °FDrizzle. Partly sunny.9 mph94%29.98 "Hg4 mi
8:20 AM50 °FDrizzle. Partly sunny.10 mph94%29.95 "Hg4 mi
7:50 AM52 °FDrizzle. More clouds than sun.10 mph94%29.95 "Hg4 mi
7:20 AM52 °FDrizzle. Low clouds.8 mph94%29.95 "Hg4 mi
6:50 AM54 °FDrizzle. Low clouds.2 mph94%29.95 "Hg2 mi
6:20 AM54 °FDrizzle. Low clouds.3 mph94%29.95 "Hg3 mi
5:50 AM55 °FDrizzle. Low clouds.2 mph94%29.95 "Hg4 mi
5:20 AM54 °FDrizzle. Fog.3 mph94%29.92 "Hg3 mi
3:50 AM54 °FFog.5 mph94%29.95 "Hg3 mi
2:50 AM54 °FDrizzle. Fog.3 mph94%29.95 "Hg2 mi
1:50 AM55 °FDrizzle. Fog.5 mph94%29.95 "Hg2 mi
Weather by CustomWeather, © 2014

See weather overviewHow to use our weather pages